User: anonymous   Login
Location: Boca de Tacagua
(10.5333°N, 66.9833°W)
Time: 23:57:46
(UTC+00:00)
Language:

Cosmos 2278 - Orbit

View from above orbital plane
View from above orbital plane
View from above satellite
View from above satellite

Ground track
Ground track

The orbit data is extracted from the following two-line orbital elements,

1 23087U 94023A   22140.45286027 -.00000201  00000-0 -81043-4 0  9996
2 23087  71.0541 200.3023 0009882 334.6486  25.4150 14.13867117448418
Epoch (UTC): 20 May 2022 10:52:07
Eccentricity: 0.0009882
inclination: 71.0541°
perigee height: 839 km
apogee height: 853 km
right ascension of ascending node: 200.3023°
argument of perigee: 334.6486°
revolutions per day: 14.13867117
mean anomaly at epoch: 25.4150°
orbit number at epoch: 44841

The dashed part of the orbit path shows where the satellite is in the earth's shadow,  

DLR